Time,TemperatureF,DewpointF,PressureIn,WindDirection,WindDirectionDegrees,WindSpeedMPH,WindSpeedGustMPH,Humidity,HourlyPrecipIn,Conditions,Clouds,dailyrainin,SolarRadiationWatts/m^2,SoftwareType,DateUTC
2013-03-10 00:02:00,40.9,35.2,29.92,ESE,121,5.0,7.0,80,0.00,,,0.00,0,HR-IXP-WINDi_r2_v1.2,2013-03-10 06:02:00,
2013-03-10 00:07:00,41.0,35.0,29.92,ESE,120,4.0,7.0,79,0.00,,,0.00,0,HR-IXP-WINDi_r2_v1.2,2013-03-10 06:07:00,
2013-03-10 00:12:00,41.0,35.0,29.92,SSE,153,4.0,7.0,79,0.00,,,0.00,0,HR-IXP-WINDi_r2_v1.2,2013-03-10 06:12:00,
2013-03-10 00:17:00,41.1,35.0,29.91,SE,138,5.0,9.0,79,0.00,,,0.00,0,HR-IXP-WINDi_r2_v1.2,2013-03-10 06:17:00,
2013-03-10 00:23:00,41.2,35.1,29.91,ESE,123,4.0,9.0,79,0.00,,,0.00,0,HR-IXP-WINDi_r2_v1.2,2013-03-10 06:23:00,
2013-03-10 00:28:00,41.2,35.1,29.92,SE,146,4.0,6.0,79,0.00,,,0.00,0,HR-IXP-WINDi_r2_v1.2,2013-03-10 06:28:00,
2013-03-10 00:33:00,41.2,35.1,29.91,SE,141,2.0,6.0,79,0.00,,,0.00,0,HR-IXP-WINDi_r2_v1.2,2013-03-10 06:33:00,
2013-03-10 00:38:00,41.3,35.2,29.91,SE,124,6.0,6.0,79,0.00,,,0.00,0,HR-IXP-WINDi_r2_v1.2,2013-03-10 06:38:00,
2013-03-10 00:43:00,41.3,35.2,29.91,SE,142,2.0,6.0,79,0.00,,,0.00,0,HR-IXP-WINDi_r2_v1.2,2013-03-10 06:43:00,
2013-03-10 00:49:00,41.4,35.0,29.91,SE,130,2.0,7.0,78,0.00,,,0.00,0,HR-IXP-WINDi_r2_v1.2,2013-03-10 06:49:00,
2013-03-10 00:54:00,41.4,35.0,29.91,SE,134,4.0,7.0,78,0.00,,,0.00,0,HR-IXP-WINDi_r2_v1.2,2013-03-10 06:54:00,
2013-03-10 00:59:00,41.4,35.0,29.91,SE,134,4.0,7.0,78,0.00,,,0.00,0,HR-IXP-WINDi_r2_v1.2,2013-03-10 06:59:00,
2013-03-10 01:04:00,41.5,35.1,29.91,SE,130,2.0,7.0,78,0.00,,,0.00,0,HR-IXP-WINDi_r2_v1.2,2013-03-10 07:04:00,
2013-03-10 01:10:00,41.5,35.1,29.90,SE,132,4.0,6.0,78,0.00,,,0.00,0,HR-IXP-WINDi_r2_v1.2,2013-03-10 07:10:00,
2013-03-10 01:15:00,41.5,35.1,29.90,South,169,5.0,8.0,78,0.00,,,0.00,0,HR-IXP-WINDi_r2_v1.2,2013-03-10 07:15:00,
2013-03-10 01:20:00,41.5,35.1,29.90,SE,130,1.0,8.0,78,0.00,,,0.00,0,HR-IXP-WINDi_r2_v1.2,2013-03-10 07:20:00,
2013-03-10 01:26:00,41.5,35.1,29.90,SE,134,2.0,6.0,78,0.00,,,0.00,0,HR-IXP-WINDi_r2_v1.2,2013-03-10 07:26:00,
2013-03-10 01:31:00,41.4,35.0,29.89,SE,134,0.0,5.0,78,0.00,,,0.00,0,HR-IXP-WINDi_r2_v1.2,2013-03-10 07:31:00,
2013-03-10 01:36:00,41.4,35.0,29.90,SE,134,0.0,5.0,78,0.00,,,0.00,0,HR-IXP-WINDi_r2_v1.2,2013-03-10 07:36:00,
2013-03-10 01:41:00,41.5,35.1,29.89,SE,134,1.0,2.0,78,0.00,,,0.00,0,HR-IXP-WINDi_r2_v1.2,2013-03-10 07:41:00,
2013-03-10 01:46:00,41.4,35.0,29.89,SE,134,0.0,2.0,78,0.00,,,0.00,0,HR-IXP-WINDi_r2_v1.2,2013-03-10 07:46:00,
2013-03-10 01:51:00,41.4,35.0,29.89,SE,134,0.0,4.0,78,0.00,,,0.00,0,HR-IXP-WINDi_r2_v1.2,2013-03-10 07:51:00,
2013-03-10 01:56:00,41.4,35.0,29.89,SSE,157,1.0,5.0,78,0.00,,,0.00,0,HR-IXP-WINDi_r2_v1.2,2013-03-10 07:56:00,
2013-03-10 03:02:00,41.5,35.1,29.89,South,182,1.0,5.0,78,0.00,,,0.00,0,HR-IXP-WINDi_r2_v1.2,2013-03-10 08:02:00,
2013-03-10 03:07:00,41.4,35.0,29.89,South,182,0.0,4.0,78,0.00,,,0.00,0,HR-IXP-WINDi_r2_v1.2,2013-03-10 08:07:00,
2013-03-10 03:12:00,41.4,35.3,29.89,South,183,1.0,3.0,79,0.00,,,0.00,0,HR-IXP-WINDi_r2_v1.2,2013-03-10 08:12:00,
2013-03-10 03:17:00,41.3,35.2,29.89,South,183,0.0,3.0,79,0.00,,,0.00,0,HR-IXP-WINDi_r2_v1.2,2013-03-10 08:17:00,
2013-03-10 03:22:00,41.2,35.1,29.89,South,183,0.0,2.0,79,0.00,,,0.00,0,HR-IXP-WINDi_r2_v1.2,2013-03-10 08:22:00,
2013-03-10 03:27:00,41.2,35.1,29.89,South,183,0.0,3.0,79,0.00,,,0.00,0,HR-IXP-WINDi_r2_v1.2,2013-03-10 08:27:00,
2013-03-10 03:33:00,41.1,35.0,29.89,South,183,2.0,3.0,79,0.00,,,0.00,0,HR-IXP-WINDi_r2_v1.2,2013-03-10 08:33:00,
2013-03-10 03:38:00,41.1,35.4,29.89,South,183,1.0,3.0,80,0.00,,,0.00,0,HR-IXP-WINDi_r2_v1.2,2013-03-10 08:38:00,
2013-03-10 03:43:00,41.1,35.4,29.89,South,183,2.0,3.0,80,0.00,,,0.00,0,HR-IXP-WINDi_r2_v1.2,2013-03-10 08:43:00,
2013-03-10 03:48:00,41.1,35.4,29.89,South,183,0.0,3.0,80,0.00,,,0.00,0,HR-IXP-WINDi_r2_v1.2,2013-03-10 08:48:00,
2013-03-10 03:53:00,41.1,35.4,29.90,South,183,0.0,2.0,80,0.00,,,0.00,0,HR-IXP-WINDi_r2_v1.2,2013-03-10 08:53:00,
2013-03-10 03:58:00,41.3,35.9,29.90,South,183,0.0,1.0,81,0.00,,,0.00,0,HR-IXP-WINDi_r2_v1.2,2013-03-10 08:58:00,
2013-03-10 04:04:00,41.5,36.4,29.90,South,183,0.0,1.0,82,0.00,,,0.00,0,HR-IXP-WINDi_r2_v1.2,2013-03-10 09:04:00,
2013-03-10 04:09:00,41.5,36.7,29.91,South,183,0.0,1.0,83,0.00,,,0.01,0,HR-IXP-WINDi_r2_v1.2,2013-03-10 09:09:00,
2013-03-10 04:14:00,41.2,37.0,29.91,South,183,0.0,1.0,85,0.81,,,0.04,0,HR-IXP-WINDi_r2_v1.2,2013-03-10 09:14:00,
2013-03-10 04:19:00,40.9,37.3,29.91,South,183,0.0,1.0,87,0.10,,,0.04,0,HR-IXP-WINDi_r2_v1.2,2013-03-10 09:19:00,
2013-03-10 04:24:00,40.7,37.4,29.91,South,183,0.0,1.0,88,0.06,,,0.05,0,HR-IXP-WINDi_r2_v1.2,2013-03-10 09:24:00,
2013-03-10 04:30:00,40.4,37.4,29.90,South,183,0.0,1.0,89,0.17,,,0.06,0,HR-IXP-WINDi_r2_v1.2,2013-03-10 09:30:00,
2013-03-10 04:35:00,40.2,37.5,29.90,South,183,0.0,1.0,90,0.11,,,0.07,0,HR-IXP-WINDi_r2_v1.2,2013-03-10 09:35:00,
2013-03-10 04:40:00,40.0,37.3,29.90,South,183,0.0,0.0,90,0.07,,,0.07,0,HR-IXP-WINDi_r2_v1.2,2013-03-10 09:40:00,
2013-03-10 04:45:00,39.8,37.3,29.89,South,183,0.0,2.0,91,0.05,,,0.08,0,HR-IXP-WINDi_r2_v1.2,2013-03-10 09:45:00,
2013-03-10 04:50:00,39.7,37.2,29.89,South,183,0.0,2.0,91,0.05,,,0.08,0,HR-IXP-WINDi_r2_v1.2,2013-03-10 09:50:00,
2013-03-10 04:55:00,39.5,37.3,29.89,South,183,1.0,1.0,92,0.05,,,0.08,0,HR-IXP-WINDi_r2_v1.2,2013-03-10 09:55:00,
2013-03-10 05:01:00,39.5,37.3,29.89,South,183,0.0,1.0,92,0.04,,,0.08,0,HR-IXP-WINDi_r2_v1.2,2013-03-10 10:01:00,
2013-03-10 05:06:00,39.3,37.4,29.89,South,183,0.0,1.0,93,0.00,,,0.08,0,HR-IXP-WINDi_r2_v1.2,2013-03-10 10:06:00,
2013-03-10 05:11:00,39.3,37.4,29.89,South,183,0.0,1.0,93,0.00,,,0.08,0,HR-IXP-WINDi_r2_v1.2,2013-03-10 10:11:00,
2013-03-10 05:16:00,39.2,37.3,29.89,South,183,0.0,1.0,93,0.00,,,0.08,0,HR-IXP-WINDi_r2_v1.2,2013-03-10 10:16:00,
2013-03-10 05:21:00,39.1,37.5,29.89,South,183,0.0,0.0,94,0.00,,,0.08,0,HR-IXP-WINDi_r2_v1.2,2013-03-10 10:21:00,
2013-03-10 05:26:00,39.1,37.5,29.89,South,183,0.0,0.0,94,0.00,,,0.08,0,HR-IXP-WINDi_r2_v1.2,2013-03-10 10:26:00,
2013-03-10 05:32:00,39.0,37.4,29.90,South,183,0.0,2.0,94,0.00,,,0.08,0,HR-IXP-WINDi_r2_v1.2,2013-03-10 10:32:00,
2013-03-10 05:37:00,39.0,37.4,29.90,South,183,0.0,2.0,94,0.00,,,0.08,0,HR-IXP-WINDi_r2_v1.2,2013-03-10 10:37:00,
2013-03-10 05:42:00,39.0,37.4,29.90,South,169,0.0,4.0,94,0.00,,,0.08,0,HR-IXP-WINDi_r2_v1.2,2013-03-10 10:42:00,
2013-03-10 05:49:00,39.0,37.6,29.89,South,169,0.0,4.0,95,0.00,,,0.08,0,HR-IXP-WINDi_r2_v1.2,2013-03-10 10:49:00,
2013-03-10 05:54:00,39.1,37.7,29.89,SE,126,0.0,5.0,95,0.00,,,0.08,0,HR-IXP-WINDi_r2_v1.2,2013-03-10 10:54:00,
2013-03-10 05:59:00,39.2,37.8,29.89,SE,126,0.0,5.0,95,0.00,,,0.08,0,HR-IXP-WINDi_r2_v1.2,2013-03-10 10:59:00,
2013-03-10 06:04:00,39.3,37.9,29.89,ESE,119,2.0,2.0,95,0.00,,,0.08,0,HR-IXP-WINDi_r2_v1.2,2013-03-10 11:04:00,
2013-03-10 06:09:00,39.3,37.9,29.89,ESE,120,1.0,5.0,95,0.00,,,0.09,0,HR-IXP-WINDi_r2_v1.2,2013-03-10 11:09:00,
2013-03-10 06:14:00,39.4,38.0,29.89,ESE,118,0.0,5.0,95,0.00,,,0.09,0,HR-IXP-WINDi_r2_v1.2,2013-03-10 11:14:00,
2013-03-10 06:20:00,39.5,37.9,29.89,ESE,117,0.0,5.0,94,0.00,,,0.09,0,HR-IXP-WINDi_r2_v1.2,2013-03-10 11:20:00,
2013-03-10 06:25:00,39.6,38.0,29.89,ESE,117,0.0,5.0,94,0.00,,,0.09,0,HR-IXP-WINDi_r2_v1.2,2013-03-10 11:25:00,
2013-03-10 06:30:00,39.6,38.0,29.88,ESE,117,0.0,4.0,94,0.00,,,0.09,0,HR-IXP-WINDi_r2_v1.2,2013-03-10 11:30:00,
2013-03-10 06:35:00,39.5,37.9,29.88,ESE,117,0.0,1.0,94,0.00,,,0.09,0,HR-IXP-WINDi_r2_v1.2,2013-03-10 11:35:00,
2013-03-10 06:40:00,39.5,37.9,29.88,ESE,117,1.0,2.0,94,0.00,,,0.09,0,HR-IXP-WINDi_r2_v1.2,2013-03-10 11:40:00,
2013-03-10 06:46:00,39.5,37.9,29.88,ESE,117,0.0,2.0,94,0.00,,,0.09,0,HR-IXP-WINDi_r2_v1.2,2013-03-10 11:46:00,
2013-03-10 06:51:00,39.5,37.9,29.88,ESE,117,0.0,4.0,94,0.00,,,0.09,0,HR-IXP-WINDi_r2_v1.2,2013-03-10 11:51:00,
2013-03-10 06:56:00,39.5,37.9,29.88,ESE,123,2.0,6.0,94,0.00,,,0.09,0,HR-IXP-WINDi_r2_v1.2,2013-03-10 11:56:00,
2013-03-10 07:01:00,39.7,38.3,29.88,SE,130,1.0,7.0,95,0.00,,,0.09,0,HR-IXP-WINDi_r2_v1.2,2013-03-10 12:01:00,
2013-03-10 07:07:00,39.8,38.2,29.89,SE,126,4.0,7.0,94,0.00,,,0.09,0,HR-IXP-WINDi_r2_v1.2,2013-03-10 12:07:00,
2013-03-10 07:12:00,40.0,38.4,29.88,SE,131,7.0,7.0,94,0.00,,,0.09,0,HR-IXP-WINDi_r2_v1.2,2013-03-10 12:12:00,
2013-03-10 07:17:00,40.1,38.2,29.88,SE,136,5.0,7.0,93,0.00,,,0.09,0,HR-IXP-WINDi_r2_v1.2,2013-03-10 12:17:00,
2013-03-10 07:22:00,40.2,38.3,29.88,South,182,0.0,7.0,93,0.00,,,0.09,0,HR-IXP-WINDi_r2_v1.2,2013-03-10 12:22:00,
2013-03-10 07:27:00,40.4,38.5,29.88,SSE,150,2.0,6.0,93,0.00,,,0.09,5,HR-IXP-WINDi_r2_v1.2,2013-03-10 12:27:00,
2013-03-10 07:32:00,40.5,38.3,29.88,SE,132,5.0,7.0,92,0.00,,,0.09,7,HR-IXP-WINDi_r2_v1.2,2013-03-10 12:32:00,
2013-03-10 07:37:00,40.6,38.4,29.87,SE,130,5.0,8.0,92,0.00,,,0.09,7,HR-IXP-WINDi_r2_v1.2,2013-03-10 12:37:00,
2013-03-10 07:42:00,40.7,38.2,29.87,SSE,159,6.0,8.0,91,0.00,,,0.09,11,HR-IXP-WINDi_r2_v1.2,2013-03-10 12:42:00,
2013-03-10 07:48:00,40.8,38.3,29.87,ESE,122,1.0,7.0,91,0.00,,,0.09,23,HR-IXP-WINDi_r2_v1.2,2013-03-10 12:48:00,
2013-03-10 07:53:00,41.0,38.2,29.87,ESE,123,0.0,7.0,90,0.00,,,0.09,30,HR-IXP-WINDi_r2_v1.2,2013-03-10 12:53:00,
2013-03-10 07:58:00,41.1,38.3,29.87,SSE,154,0.0,5.0,90,0.00,,,0.09,33,HR-IXP-WINDi_r2_v1.2,2013-03-10 12:58:00,
2013-03-10 08:04:00,41.3,38.5,29.87,SSE,148,0.0,6.0,90,0.00,,,0.09,44,HR-IXP-WINDi_r2_v1.2,2013-03-10 13:04:00,
2013-03-10 08:09:00,41.4,38.6,29.86,ESE,123,7.0,7.0,90,0.00,,,0.09,51,HR-IXP-WINDi_r2_v1.2,2013-03-10 13:09:00,
2013-03-10 08:15:00,41.5,38.5,29.87,SE,129,6.0,7.0,89,0.00,,,0.09,51,HR-IXP-WINDi_r2_v1.2,2013-03-10 13:15:00,
2013-03-10 08:20:00,41.8,38.7,29.87,SE,144,2.0,6.0,89,0.00,,,0.09,42,HR-IXP-WINDi_r2_v1.2,2013-03-10 13:20:00,
2013-03-10 08:25:00,41.9,38.6,29.87,SE,139,2.0,6.0,88,0.00,,,0.09,42,HR-IXP-WINDi_r2_v1.2,2013-03-10 13:25:00,
2013-03-10 08:30:00,42.1,38.8,29.87,SSE,165,1.0,6.0,88,0.00,,,0.09,44,HR-IXP-WINDi_r2_v1.2,2013-03-10 13:30:00,
2013-03-10 08:36:00,42.2,38.6,29.87,SSE,165,5.0,7.0,87,0.00,,,0.09,33,HR-IXP-WINDi_r2_v1.2,2013-03-10 13:36:00,
2013-03-10 08:41:00,42.3,38.4,29.87,SE,140,6.0,7.0,86,0.00,,,0.09,40,HR-IXP-WINDi_r2_v1.2,2013-03-10 13:41:00,
2013-03-10 08:46:00,42.4,38.5,29.86,South,175,4.0,10.0,86,0.00,,,0.09,49,HR-IXP-WINDi_r2_v1.2,2013-03-10 13:46:00,
2013-03-10 08:51:00,42.6,38.7,29.86,SSE,155,4.0,10.0,86,0.00,,,0.09,56,HR-IXP-WINDi_r2_v1.2,2013-03-10 13:51:00,
2013-03-10 08:56:00,42.7,38.8,29.86,SSW,194,3.0,8.0,86,0.00,,,0.09,83,HR-IXP-WINDi_r2_v1.2,2013-03-10 13:56:00,
2013-03-10 09:02:00,42.7,38.8,29.86,South,182,3.0,6.0,86,0.00,,,0.09,77,HR-IXP-WINDi_r2_v1.2,2013-03-10 14:02:00,
2013-03-10 09:07:00,42.7,38.8,29.86,SSE,155,6.0,6.0,86,0.00,,,0.09,47,HR-IXP-WINDi_r2_v1.2,2013-03-10 14:07:00,
2013-03-10 09:12:00,42.7,38.8,29.87,South,186,2.0,6.0,86,0.00,,,0.09,33,HR-IXP-WINDi_r2_v1.2,2013-03-10 14:12:00,
2013-03-10 09:17:00,42.6,38.7,29.86,SSE,162,5.0,7.0,86,0.00,,,0.09,86,HR-IXP-WINDi_r2_v1.2,2013-03-10 14:17:00,
2013-03-10 09:23:00,42.7,38.8,29.86,ESE,122,6.0,8.0,86,0.00,,,0.09,116,HR-IXP-WINDi_r2_v1.2,2013-03-10 14:23:00,
2013-03-10 09:28:00,42.9,39.0,29.86,South,190,5.0,8.0,86,0.00,,,0.09,97,HR-IXP-WINDi_r2_v1.2,2013-03-10 14:28:00,
2013-03-10 09:33:00,43.1,38.9,29.86,South,182,3.0,8.0,85,0.00,,,0.09,98,HR-IXP-WINDi_r2_v1.2,2013-03-10 14:33:00,
2013-03-10 09:38:00,43.3,39.0,29.86,South,183,6.0,8.0,85,0.00,,,0.09,118,HR-IXP-WINDi_r2_v1.2,2013-03-10 14:38:00,
2013-03-10 09:43:00,43.5,39.2,29.86,South,185,4.0,10.0,85,0.00,,,0.09,146,HR-IXP-WINDi_r2_v1.2,2013-03-10 14:43:00,
2013-03-10 09:48:00,43.6,39.3,29.86,South,190,3.0,10.0,85,0.00,,,0.09,144,HR-IXP-WINDi_r2_v1.2,2013-03-10 14:48:00,
2013-03-10 09:54:00,43.9,39.3,29.86,SSW,192,4.0,10.0,84,0.00,,,0.09,134,HR-IXP-WINDi_r2_v1.2,2013-03-10 14:54:00,
2013-03-10 09:59:00,44.1,39.5,29.86,South,169,5.0,11.0,84,0.00,,,0.09,109,HR-IXP-WINDi_r2_v1.2,2013-03-10 14:59:00,
2013-03-10 10:04:00,44.2,39.6,29.86,South,169,5.0,11.0,84,0.00,,,0.09,114,HR-IXP-WINDi_r2_v1.2,2013-03-10 15:04:00,
2013-03-10 10:09:00,44.3,39.7,29.86,South,183,4.0,9.0,84,0.00,,,0.09,67,HR-IXP-WINDi_r2_v1.2,2013-03-10 15:09:00,
2013-03-10 10:14:00,44.4,39.8,29.87,South,175,8.0,10.0,84,0.00,,,0.10,53,HR-IXP-WINDi_r2_v1.2,2013-03-10 15:14:00,
2013-03-10 10:19:00,44.3,40.3,29.87,South,173,5.0,10.0,86,0.19,,,0.12,90,HR-IXP-WINDi_r2_v1.2,2013-03-10 15:19:00,
2013-03-10 10:24:00,44.1,40.4,29.87,South,178,4.0,10.0,87,0.10,,,0.12,39,HR-IXP-WINDi_r2_v1.2,2013-03-10 15:24:00,
2013-03-10 10:30:00,43.9,40.2,29.87,SSW,193,3.0,8.0,87,0.05,,,0.12,65,HR-IXP-WINDi_r2_v1.2,2013-03-10 15:30:00,
2013-03-10 10:35:00,43.9,40.5,29.86,SSW,207,2.0,7.0,88,0.04,,,0.12,95,HR-IXP-WINDi_r2_v1.2,2013-03-10 15:35:00,
2013-03-10 10:40:00,43.9,40.8,29.86,SSW,207,0.0,6.0,89,0.00,,,0.12,104,HR-IXP-WINDi_r2_v1.2,2013-03-10 15:40:00,
2013-03-10 10:45:00,43.9,40.8,29.87,SSW,207,2.0,2.0,89,0.00,,,0.12,88,HR-IXP-WINDi_r2_v1.2,2013-03-10 15:45:00,
2013-03-10 10:51:00,44.0,41.2,29.86,South,180,0.0,3.0,90,0.00,,,0.12,100,HR-IXP-WINDi_r2_v1.2,2013-03-10 15:51:00,
2013-03-10 10:56:00,44.1,41.3,29.86,South,180,0.0,3.0,90,0.00,,,0.12,111,HR-IXP-WINDi_r2_v1.2,2013-03-10 15:56:00,
2013-03-10 11:01:00,44.3,41.8,29.86,South,180,1.0,2.0,91,0.00,,,0.12,100,HR-IXP-WINDi_r2_v1.2,2013-03-10 16:01:00,
2013-03-10 11:06:00,44.5,41.7,29.86,South,180,1.0,2.0,90,0.00,,,0.12,93,HR-IXP-WINDi_r2_v1.2,2013-03-10 16:06:00,
2013-03-10 11:12:00,44.7,41.9,29.85,South,180,1.0,2.0,90,0.00,,,0.12,244,HR-IXP-WINDi_r2_v1.2,2013-03-10 16:12:00,
2013-03-10 11:17:00,45.1,42.0,29.85,South,180,0.0,4.0,89,0.00,,,0.12,292,HR-IXP-WINDi_r2_v1.2,2013-03-10 16:17:00,
2013-03-10 11:22:00,45.6,41.9,29.85,SSW,200,2.0,5.0,87,0.00,,,0.12,165,HR-IXP-WINDi_r2_v1.2,2013-03-10 16:22:00,
2013-03-10 11:27:00,46.1,42.1,29.85,SSE,161,2.0,7.0,86,0.00,,,0.12,91,HR-IXP-WINDi_r2_v1.2,2013-03-10 16:27:00,
2013-03-10 11:32:00,46.3,42.3,29.85,South,182,2.0,7.0,86,0.00,,,0.12,93,HR-IXP-WINDi_r2_v1.2,2013-03-10 16:32:00,
2013-03-10 11:38:00,46.5,41.9,29.85,SSE,152,1.0,6.0,84,0.00,,,0.12,44,HR-IXP-WINDi_r2_v1.2,2013-03-10 16:38:00,
2013-03-10 11:43:00,46.5,41.9,29.85,South,181,2.0,5.0,84,0.00,,,0.12,62,HR-IXP-WINDi_r2_v1.2,2013-03-10 16:43:00,
2013-03-10 11:48:00,46.5,41.9,29.85,South,175,0.0,5.0,84,0.00,,,0.12,47,HR-IXP-WINDi_r2_v1.2,2013-03-10 16:48:00,
2013-03-10 11:53:00,46.6,42.0,29.85,SSW,201,1.0,5.0,84,0.00,,,0.12,70,HR-IXP-WINDi_r2_v1.2,2013-03-10 16:53:00,
2013-03-10 11:58:00,46.6,42.0,29.84,SSW,201,1.0,4.0,84,0.00,,,0.12,113,HR-IXP-WINDi_r2_v1.2,2013-03-10 16:58:00,
2013-03-10 12:04:00,46.8,42.5,29.84,SE,131,1.0,5.0,85,0.00,,,0.12,134,HR-IXP-WINDi_r2_v1.2,2013-03-10 17:04:00,
2013-03-10 12:09:00,47.0,43.0,29.84,SE,133,2.0,5.0,86,0.00,,,0.12,158,HR-IXP-WINDi_r2_v1.2,2013-03-10 17:09:00,
2013-03-10 12:14:00,47.2,43.2,29.83,SE,133,2.0,5.0,86,0.00,,,0.12,97,HR-IXP-WINDi_r2_v1.2,2013-03-10 17:14:00,
2013-03-10 12:19:00,47.3,43.0,29.83,SE,133,1.0,5.0,85,0.00,,,0.12,128,HR-IXP-WINDi_r2_v1.2,2013-03-10 17:19:00,
2013-03-10 12:24:00,47.5,42.9,29.83,SE,128,2.0,6.0,84,0.00,,,0.12,95,HR-IXP-WINDi_r2_v1.2,2013-03-10 17:24:00,
2013-03-10 12:29:00,47.8,42.8,29.84,SE,130,1.0,6.0,83,0.00,,,0.12,114,HR-IXP-WINDi_r2_v1.2,2013-03-10 17:29:00,
2013-03-10 12:34:00,48.0,43.0,29.84,SE,130,2.0,4.0,83,0.00,,,0.12,142,HR-IXP-WINDi_r2_v1.2,2013-03-10 17:34:00,
2013-03-10 12:40:00,48.2,42.9,29.84,South,177,5.0,5.0,82,0.00,,,0.12,77,HR-IXP-WINDi_r2_v1.2,2013-03-10 17:40:00,
2013-03-10 12:45:00,48.3,43.0,29.85,South,177,1.0,5.0,82,0.00,,,0.12,79,HR-IXP-WINDi_r2_v1.2,2013-03-10 17:45:00,
2013-03-10 12:50:00,48.3,43.3,29.85,South,171,2.0,5.0,83,0.00,,,0.12,56,HR-IXP-WINDi_r2_v1.2,2013-03-10 17:50:00,
2013-03-10 12:55:00,48.3,43.3,29.85,South,188,2.0,5.0,83,0.00,,,0.12,47,HR-IXP-WINDi_r2_v1.2,2013-03-10 17:55:00,
2013-03-10 13:00:00,48.3,43.3,29.85,South,171,0.0,5.0,83,0.00,,,0.12,97,HR-IXP-WINDi_r2_v1.2,2013-03-10 18:00:00,
2013-03-10 13:06:00,48.4,43.7,29.84,South,171,0.0,5.0,84,0.00,,,0.12,209,HR-IXP-WINDi_r2_v1.2,2013-03-10 18:06:00,
2013-03-10 13:11:00,48.8,44.7,29.84,South,171,0.0,4.0,86,0.00,,,0.12,287,HR-IXP-WINDi_r2_v1.2,2013-03-10 18:11:00,
2013-03-10 13:16:00,49.4,44.4,29.84,South,171,0.0,1.0,83,0.00,,,0.12,218,HR-IXP-WINDi_r2_v1.2,2013-03-10 18:16:00,
2013-03-10 13:21:00,49.9,44.9,29.84,South,171,2.0,2.0,83,0.00,,,0.12,118,HR-IXP-WINDi_r2_v1.2,2013-03-10 18:21:00,
2013-03-10 13:27:00,50.4,45.1,29.83,SE,142,2.0,5.0,82,0.00,,,0.12,311,HR-IXP-WINDi_r2_v1.2,2013-03-10 18:27:00,
2013-03-10 13:32:00,51.1,45.4,29.83,SSE,163,4.0,6.0,81,0.00,,,0.12,334,HR-IXP-WINDi_r2_v1.2,2013-03-10 18:32:00,
2013-03-10 13:37:00,51.9,45.9,29.81,SE,126,4.0,6.0,80,0.00,,,0.12,269,HR-IXP-WINDi_r2_v1.2,2013-03-10 18:37:00,
2013-03-10 13:42:00,52.6,46.5,29.80,SE,130,1.0,6.0,80,0.00,,,0.12,336,HR-IXP-WINDi_r2_v1.2,2013-03-10 18:42:00,
2013-03-10 13:47:00,53.3,47.6,29.79,ENE,64,5.0,5.0,81,0.00,,,0.12,306,HR-IXP-WINDi_r2_v1.2,2013-03-10 18:47:00,
2013-03-10 13:52:00,54.0,47.2,29.76,ENE,64,1.0,5.0,78,0.00,,,0.12,281,HR-IXP-WINDi_r2_v1.2,2013-03-10 18:52:00,
2013-03-10 13:57:00,54.6,47.5,29.79,SE,131,6.0,9.0,77,0.00,,,0.12,338,HR-IXP-WINDi_r2_v1.2,2013-03-10 18:57:00,
2013-03-10 14:03:00,55.2,47.7,29.80,SE,132,6.0,9.0,76,0.00,,,0.12,420,HR-IXP-WINDi_r2_v1.2,2013-03-10 19:03:00,
2013-03-10 14:08:00,55.4,47.9,29.80,SSW,198,4.0,10.0,76,0.00,,,0.12,160,HR-IXP-WINDi_r2_v1.2,2013-03-10 19:08:00,
2013-03-10 14:13:00,55.4,47.9,29.78,SSW,213,4.0,10.0,76,0.00,,,0.12,320,HR-IXP-WINDi_r2_v1.2,2013-03-10 19:13:00,
2013-03-10 14:18:00,55.7,48.5,29.77,South,188,2.0,9.0,77,0.00,,,0.12,380,HR-IXP-WINDi_r2_v1.2,2013-03-10 19:18:00,
2013-03-10 14:23:00,56.4,48.9,29.78,South,176,6.0,9.0,76,0.00,,,0.12,294,HR-IXP-WINDi_r2_v1.2,2013-03-10 19:23:00,
2013-03-10 14:28:00,56.8,49.3,29.77,South,181,3.0,8.0,76,0.00,,,0.12,257,HR-IXP-WINDi_r2_v1.2,2013-03-10 19:28:00,
2013-03-10 14:34:00,57.1,49.2,29.77,SSW,213,3.0,11.0,75,0.00,,,0.12,276,HR-IXP-WINDi_r2_v1.2,2013-03-10 19:34:00,
2013-03-10 14:39:00,57.2,48.9,29.77,SSE,163,8.0,11.0,74,0.00,,,0.12,278,HR-IXP-WINDi_r2_v1.2,2013-03-10 19:39:00,
2013-03-10 14:44:00,57.3,49.0,29.77,South,183,2.0,9.0,74,0.00,,,0.12,262,HR-IXP-WINDi_r2_v1.2,2013-03-10 19:44:00,
2013-03-10 14:49:00,57.4,49.1,29.76,SSE,148,4.0,9.0,74,0.00,,,0.12,274,HR-IXP-WINDi_r2_v1.2,2013-03-10 19:49:00,
2013-03-10 14:54:00,57.7,49.4,29.76,SE,128,4.0,7.0,74,0.00,,,0.12,244,HR-IXP-WINDi_r2_v1.2,2013-03-10 19:54:00,
2013-03-10 15:00:00,57.8,49.1,29.75,South,181,4.0,11.0,73,0.00,,,0.12,239,HR-IXP-WINDi_r2_v1.2,2013-03-10 20:00:00,
2013-03-10 15:05:00,57.8,48.8,29.76,SE,138,2.0,11.0,72,0.00,,,0.12,214,HR-IXP-WINDi_r2_v1.2,2013-03-10 20:05:00,
2013-03-10 15:10:00,57.7,48.7,29.76,SSE,167,1.0,9.0,72,0.00,,,0.12,174,HR-IXP-WINDi_r2_v1.2,2013-03-10 20:10:00,
2013-03-10 15:15:00,57.6,48.6,29.76,SE,139,5.0,10.0,72,0.00,,,0.12,148,HR-IXP-WINDi_r2_v1.2,2013-03-10 20:15:00,
2013-03-10 15:20:00,57.5,48.5,29.76,SE,131,6.0,10.0,72,0.00,,,0.12,167,HR-IXP-WINDi_r2_v1.2,2013-03-10 20:20:00,
2013-03-10 15:25:00,57.4,48.4,29.76,SSE,147,2.0,10.0,72,0.00,,,0.12,132,HR-IXP-WINDi_r2_v1.2,2013-03-10 20:25:00,
2013-03-10 15:30:00,57.4,48.4,29.75,SE,136,5.0,12.0,72,0.00,,,0.12,229,HR-IXP-WINDi_r2_v1.2,2013-03-10 20:30:00,
2013-03-10 15:35:00,57.5,48.5,29.76,SSE,167,4.0,12.0,72,0.00,,,0.12,172,HR-IXP-WINDi_r2_v1.2,2013-03-10 20:35:00,
2013-03-10 15:40:00,57.6,48.2,29.76,SE,132,8.0,12.0,71,0.00,,,0.12,151,HR-IXP-WINDi_r2_v1.2,2013-03-10 20:40:00,
2013-03-10 15:45:00,57.7,47.9,29.76,SE,140,7.0,14.0,70,0.00,,,0.12,135,HR-IXP-WINDi_r2_v1.2,2013-03-10 20:45:00,
2013-03-10 15:50:00,57.8,48.4,29.76,South,181,8.0,17.0,71,0.00,,,0.12,63,HR-IXP-WINDi_r2_v1.2,2013-03-10 20:50:00,
2013-03-10 15:56:00,57.7,47.9,29.76,South,169,9.0,17.0,70,0.00,,,0.12,39,HR-IXP-WINDi_r2_v1.2,2013-03-10 20:56:00,
2013-03-10 16:01:00,57.5,47.7,29.76,South,171,4.0,12.0,70,0.00,,,0.12,83,HR-IXP-WINDi_r2_v1.2,2013-03-10 21:01:00,
2013-03-10 16:07:00,57.3,47.9,29.76,South,174,5.0,12.0,71,0.00,,,0.12,188,HR-IXP-WINDi_r2_v1.2,2013-03-10 21:07:00,
2013-03-10 16:12:00,57.5,48.1,29.75,SE,129,9.0,13.0,71,0.00,,,0.12,127,HR-IXP-WINDi_r2_v1.2,2013-03-10 21:12:00,
2013-03-10 16:17:00,57.6,48.2,29.75,SE,143,6.0,13.0,71,0.00,,,0.12,116,HR-IXP-WINDi_r2_v1.2,2013-03-10 21:17:00,
2013-03-10 16:22:00,57.7,48.3,29.75,SSE,150,4.0,11.0,71,0.00,,,0.12,56,HR-IXP-WINDi_r2_v1.2,2013-03-10 21:22:00,
2013-03-10 16:27:00,57.8,48.8,29.73,ENE,68,2.0,11.0,72,0.00,,,0.12,60,HR-IXP-WINDi_r2_v1.2,2013-03-10 21:27:00,
2013-03-10 16:33:00,57.7,48.7,29.72,ESE,108,5.0,7.0,72,0.00,,,0.12,33,HR-IXP-WINDi_r2_v1.2,2013-03-10 21:33:00,
2013-03-10 16:38:00,57.4,48.4,29.72,SE,138,6.0,8.0,72,0.00,,,0.12,18,HR-IXP-WINDi_r2_v1.2,2013-03-10 21:38:00,
2013-03-10 16:43:00,57.1,48.5,29.72,East,86,2.0,12.0,73,0.00,,,0.12,26,HR-IXP-WINDi_r2_v1.2,2013-03-10 21:43:00,
2013-03-10 16:48:00,56.9,48.3,29.72,SSE,157,6.0,12.0,73,0.00,,,0.12,28,HR-IXP-WINDi_r2_v1.2,2013-03-10 21:48:00,
2013-03-10 16:53:00,56.5,47.5,29.72,SE,140,2.0,8.0,72,0.00,,,0.12,19,HR-IXP-WINDi_r2_v1.2,2013-03-10 21:53:00,
2013-03-10 16:58:00,56.1,47.5,29.71,SE,138,4.0,8.0,73,0.00,,,0.12,39,HR-IXP-WINDi_r2_v1.2,2013-03-10 21:58:00,
2013-03-10 17:04:00,55.7,47.1,29.72,SE,141,8.0,12.0,73,0.00,,,0.12,19,HR-IXP-WINDi_r2_v1.2,2013-03-10 22:04:00,
2013-03-10 17:09:00,55.4,46.8,29.72,ESE,113,4.0,12.0,73,0.00,,,0.12,21,HR-IXP-WINDi_r2_v1.2,2013-03-10 22:09:00,
2013-03-10 17:14:00,55.2,47.0,29.71,East,101,5.0,9.0,74,0.00,,,0.12,35,HR-IXP-WINDi_r2_v1.2,2013-03-10 22:14:00,
2013-03-10 17:19:00,55.1,46.9,29.71,SSE,148,6.0,11.0,74,0.00,,,0.12,53,HR-IXP-WINDi_r2_v1.2,2013-03-10 22:19:00,
2013-03-10 17:24:00,55.0,46.8,29.72,SE,125,4.0,11.0,74,0.00,,,0.12,39,HR-IXP-WINDi_r2_v1.2,2013-03-10 22:24:00,
2013-03-10 17:29:00,55.1,46.9,29.71,SE,145,2.0,11.0,74,0.00,,,0.12,90,HR-IXP-WINDi_r2_v1.2,2013-03-10 22:29:00,
2013-03-10 17:34:00,55.1,46.9,29.71,SE,134,5.0,9.0,74,0.00,,,0.12,18,HR-IXP-WINDi_r2_v1.2,2013-03-10 22:34:00,
2013-03-10 17:39:00,55.0,46.8,29.72,SE,138,2.0,9.0,74,0.00,,,0.12,9,HR-IXP-WINDi_r2_v1.2,2013-03-10 22:39:00,
2013-03-10 17:44:00,54.8,47.0,29.72,East,92,4.0,10.0,75,0.00,,,0.12,12,HR-IXP-WINDi_r2_v1.2,2013-03-10 22:44:00,
2013-03-10 17:49:00,54.8,46.6,29.72,ESE,113,5.0,10.0,74,0.00,,,0.12,5,HR-IXP-WINDi_r2_v1.2,2013-03-10 22:49:00,
2013-03-10 17:55:00,54.7,46.9,29.71,SSE,147,4.0,9.0,75,0.00,,,0.12,9,HR-IXP-WINDi_r2_v1.2,2013-03-10 22:55:00,
2013-03-10 18:00:00,54.6,47.5,29.71,SE,129,7.0,7.0,77,0.00,,,0.12,12,HR-IXP-WINDi_r2_v1.2,2013-03-10 23:00:00,
2013-03-10 18:05:00,54.4,47.6,29.70,ESE,103,2.0,8.0,78,0.00,,,0.12,12,HR-IXP-WINDi_r2_v1.2,2013-03-10 23:05:00,
2013-03-10 18:10:00,54.2,47.4,29.71,ESE,103,5.0,9.0,78,0.00,,,0.12,5,HR-IXP-WINDi_r2_v1.2,2013-03-10 23:10:00,
2013-03-10 18:15:00,54.0,47.2,29.71,SE,136,4.0,9.0,78,0.00,,,0.12,0,HR-IXP-WINDi_r2_v1.2,2013-03-10 23:15:00,
2013-03-10 18:20:00,53.8,47.4,29.72,SE,130,11.0,11.0,79,0.00,,,0.12,0,HR-IXP-WINDi_r2_v1.2,2013-03-10 23:20:00,
2013-03-10 18:25:00,53.6,47.5,29.72,South,176,5.0,11.0,80,0.00,,,0.12,0,HR-IXP-WINDi_r2_v1.2,2013-03-10 23:25:00,
2013-03-10 18:31:00,53.3,47.6,29.72,SE,130,1.0,11.0,81,0.00,,,0.13,0,HR-IXP-WINDi_r2_v1.2,2013-03-10 23:31:00,
2013-03-10 18:36:00,53.0,47.6,29.73,South,169,4.0,7.0,82,0.13,,,0.14,0,HR-IXP-WINDi_r2_v1.2,2013-03-10 23:36:00,
2013-03-10 18:41:00,52.6,47.2,29.73,South,175,1.0,6.0,82,0.07,,,0.14,0,HR-IXP-WINDi_r2_v1.2,2013-03-10 23:41:00,
2013-03-10 18:46:00,52.3,47.5,29.74,South,173,4.0,6.0,84,0.04,,,0.14,0,HR-IXP-WINDi_r2_v1.2,2013-03-10 23:46:00,
2013-03-10 18:51:00,51.8,46.7,29.74,SSE,158,4.0,9.0,83,0.17,,,0.16,0,HR-IXP-WINDi_r2_v1.2,2013-03-10 23:51:00,
2013-03-10 18:57:00,51.5,46.8,29.73,SSE,165,6.0,11.0,84,0.10,,,0.16,0,HR-IXP-WINDi_r2_v1.2,2013-03-10 23:57:00,
2013-03-10 19:02:00,51.2,46.8,29.73,SSE,159,5.0,12.0,85,0.06,,,0.17,0,HR-IXP-WINDi_r2_v1.2,2013-03-11 00:02:00,
2013-03-10 19:07:00,51.0,46.6,29.73,SSE,165,12.0,12.0,85,0.06,,,0.17,0,HR-IXP-WINDi_r2_v1.2,2013-03-11 00:07:00,
2013-03-10 19:12:00,51.0,46.3,29.73,SSE,159,5.0,14.0,84,0.08,,,0.18,0,HR-IXP-WINDi_r2_v1.2,2013-03-11 00:12:00,
2013-03-10 19:17:00,50.9,46.5,29.74,SSE,153,7.0,14.0,85,0.07,,,0.18,0,HR-IXP-WINDi_r2_v1.2,2013-03-11 00:17:00,
2013-03-10 19:22:00,50.7,46.6,29.73,SE,137,5.0,16.0,86,0.05,,,0.19,0,HR-IXP-WINDi_r2_v1.2,2013-03-11 00:22:00,
2013-03-10 19:28:00,50.4,46.3,29.72,SE,126,9.0,16.0,86,0.13,,,0.20,0,HR-IXP-WINDi_r2_v1.2,2013-03-11 00:28:00,
2013-03-10 19:33:00,50.2,46.1,29.71,SE,126,5.0,17.0,86,0.07,,,0.20,0,HR-IXP-WINDi_r2_v1.2,2013-03-11 00:33:00,
2013-03-10 19:38:00,50.0,46.2,29.70,SSE,161,6.0,17.0,87,0.04,,,0.20,0,HR-IXP-WINDi_r2_v1.2,2013-03-11 00:38:00,
2013-03-10 19:43:00,49.9,46.1,29.70,South,169,6.0,16.0,87,0.00,,,0.20,0,HR-IXP-WINDi_r2_v1.2,2013-03-11 00:43:00,
2013-03-10 19:48:00,50.0,45.9,29.69,ESE,120,5.0,16.0,86,0.00,,,0.20,0,HR-IXP-WINDi_r2_v1.2,2013-03-11 00:48:00,
2013-03-10 19:54:00,50.0,46.8,29.69,SSE,165,11.0,21.0,89,0.00,,,0.20,0,HR-IXP-WINDi_r2_v1.2,2013-03-11 00:54:00,
2013-03-10 19:59:00,50.2,45.8,29.70,South,185,5.0,21.0,85,0.00,,,0.20,0,HR-IXP-WINDi_r2_v1.2,2013-03-11 00:59:00,
2013-03-10 20:04:00,50.2,45.8,29.70,SE,126,8.0,13.0,85,0.00,,,0.20,0,HR-IXP-WINDi_r2_v1.2,2013-03-11 01:04:00,
2013-03-10 20:09:00,50.2,45.5,29.69,ESE,122,5.0,13.0,84,0.00,,,0.20,0,HR-IXP-WINDi_r2_v1.2,2013-03-11 01:09:00,
2013-03-10 20:14:00,50.2,45.5,29.69,South,175,5.0,12.0,84,0.00,,,0.20,0,HR-IXP-WINDi_r2_v1.2,2013-03-11 01:14:00,
2013-03-10 20:20:00,50.2,45.5,29.69,SSE,152,9.0,12.0,84,0.00,,,0.20,0,HR-IXP-WINDi_r2_v1.2,2013-03-11 01:20:00,
2013-03-10 20:25:00,50.2,45.2,29.69,East,101,7.0,12.0,83,0.00,,,0.20,0,HR-IXP-WINDi_r2_v1.2,2013-03-11 01:25:00,
2013-03-10 20:30:00,50.3,45.0,29.69,SSE,155,4.0,13.0,82,0.00,,,0.20,0,HR-IXP-WINDi_r2_v1.2,2013-03-11 01:30:00,
2013-03-10 20:35:00,50.5,44.8,29.69,South,181,4.0,15.0,81,0.00,,,0.20,0,HR-IXP-WINDi_r2_v1.2,2013-03-11 01:35:00,
2013-03-10 20:41:00,50.7,44.7,29.69,South,169,4.0,15.0,80,0.00,,,0.20,0,HR-IXP-WINDi_r2_v1.2,2013-03-11 01:41:00,
2013-03-10 20:46:00,50.8,44.8,29.69,SSE,165,7.0,13.0,80,0.00,,,0.20,0,HR-IXP-WINDi_r2_v1.2,2013-03-11 01:46:00,
2013-03-10 20:51:00,51.1,44.8,29.69,SSE,162,7.0,14.0,79,0.00,,,0.20,0,HR-IXP-WINDi_r2_v1.2,2013-03-11 01:51:00,
2013-03-10 20:57:00,51.3,45.0,29.69,SSE,161,6.0,15.0,79,0.00,,,0.20,0,HR-IXP-WINDi_r2_v1.2,2013-03-11 01:57:00,
2013-03-10 21:02:00,51.4,45.1,29.69,South,178,7.0,15.0,79,0.00,,,0.20,0,HR-IXP-WINDi_r2_v1.2,2013-03-11 02:02:00,
2013-03-10 21:07:00,51.4,45.1,29.69,South,173,5.0,16.0,79,0.00,,,0.20,0,HR-IXP-WINDi_r2_v1.2,2013-03-11 02:07:00,
2013-03-10 21:12:00,51.4,45.1,29.70,SSW,192,13.0,17.0,79,0.00,,,0.20,0,HR-IXP-WINDi_r2_v1.2,2013-03-11 02:12:00,
2013-03-10 21:17:00,51.6,45.2,29.70,SSE,163,16.0,17.0,79,0.00,,,0.20,0,HR-IXP-WINDi_r2_v1.2,2013-03-11 02:17:00,
2013-03-10 21:22:00,51.8,45.4,29.70,South,186,20.0,20.0,79,0.00,,,0.20,0,HR-IXP-WINDi_r2_v1.2,2013-03-11 02:22:00,
2013-03-10 21:28:00,52.0,46.0,29.71,SSW,209,5.0,20.0,80,0.00,,,0.20,0,HR-IXP-WINDi_r2_v1.2,2013-03-11 02:28:00,
2013-03-10 21:33:00,52.0,46.0,29.70,SSW,202,4.0,18.0,80,0.00,,,0.20,0,HR-IXP-WINDi_r2_v1.2,2013-03-11 02:33:00,
2013-03-10 21:38:00,51.8,45.8,29.70,South,190,8.0,16.0,80,0.00,,,0.20,0,HR-IXP-WINDi_r2_v1.2,2013-03-11 02:38:00,
2013-03-10 21:43:00,51.7,46.0,29.69,South,175,4.0,13.0,81,0.00,,,0.20,0,HR-IXP-WINDi_r2_v1.2,2013-03-11 02:43:00,
2013-03-10 21:49:00,51.6,45.9,29.69,South,173,7.0,12.0,81,0.00,,,0.20,0,HR-IXP-WINDi_r2_v1.2,2013-03-11 02:49:00,
2013-03-10 21:54:00,51.5,46.1,29.69,South,186,7.0,12.0,82,0.00,,,0.20,0,HR-IXP-WINDi_r2_v1.2,2013-03-11 02:54:00,
2013-03-10 21:59:00,51.4,46.0,29.69,SSE,159,7.0,13.0,82,0.00,,,0.20,0,HR-IXP-WINDi_r2_v1.2,2013-03-11 02:59:00,
2013-03-10 22:05:00,51.3,45.9,29.69,South,185,3.0,13.0,82,0.00,,,0.20,0,HR-IXP-WINDi_r2_v1.2,2013-03-11 03:05:00,
2013-03-10 22:10:00,51.2,45.8,29.69,South,178,4.0,10.0,82,0.00,,,0.20,0,HR-IXP-WINDi_r2_v1.2,2013-03-11 03:10:00,
2013-03-10 22:15:00,50.8,45.4,29.69,SE,145,7.0,8.0,82,0.00,,,0.20,0,HR-IXP-WINDi_r2_v1.2,2013-03-11 03:15:00,
2013-03-10 22:20:00,50.6,45.3,29.69,South,173,2.0,8.0,82,0.00,,,0.20,0,HR-IXP-WINDi_r2_v1.2,2013-03-11 03:20:00,
2013-03-10 22:25:00,50.5,45.5,29.70,SSW,197,1.0,8.0,83,0.00,,,0.20,0,HR-IXP-WINDi_r2_v1.2,2013-03-11 03:25:00,
2013-03-10 22:30:00,50.4,45.4,29.69,South,169,7.0,8.0,83,0.00,,,0.20,0,HR-IXP-WINDi_r2_v1.2,2013-03-11 03:30:00,
2013-03-10 22:35:00,50.3,45.6,29.70,SSE,149,6.0,8.0,84,0.00,,,0.20,0,HR-IXP-WINDi_r2_v1.2,2013-03-11 03:35:00,
2013-03-10 22:40:00,50.4,46.0,29.70,SSE,150,9.0,20.0,85,0.00,,,0.20,0,HR-IXP-WINDi_r2_v1.2,2013-03-11 03:40:00,
2013-03-10 22:45:00,50.6,46.8,29.70,South,171,12.0,25.0,87,0.00,,,0.21,0,HR-IXP-WINDi_r2_v1.2,2013-03-11 03:45:00,
2013-03-10 22:51:00,50.7,47.2,29.70,South,186,16.0,25.0,88,0.15,,,0.22,0,HR-IXP-WINDi_r2_v1.2,2013-03-11 03:51:00,
2013-03-10 22:56:00,50.6,47.4,29.70,South,184,6.0,23.0,89,0.07,,,0.22,0,HR-IXP-WINDi_r2_v1.2,2013-03-11 03:56:00,
2013-03-10 23:00:00,50.6,47.4,29.70,South,169,11.0,23.0,89,0.06,,,0.23,0,HR-IXP-WINDi_r2_v1.2,2013-03-11 04:00:00,
2013-03-10 23:05:00,50.6,47.4,29.69,SSE,152,10.0,23.0,89,0.06,,,0.23,0,HR-IXP-WINDi_r2_v1.2,2013-03-11 04:05:00,
2013-03-10 23:10:00,50.5,47.6,29.69,SSW,204,7.0,23.0,90,0.05,,,0.23,0,HR-IXP-WINDi_r2_v1.2,2013-03-11 04:10:00,
2013-03-10 23:15:00,50.5,47.9,29.69,South,189,12.0,20.0,91,0.00,,,0.23,0,HR-IXP-WINDi_r2_v1.2,2013-03-11 04:15:00,
2013-03-10 23:20:00,50.4,47.8,29.69,South,188,10.0,20.0,91,0.00,,,0.24,0,HR-IXP-WINDi_r2_v1.2,2013-03-11 04:20:00,
2013-03-10 23:26:00,50.3,48.0,29.69,SSW,192,5.0,20.0,92,0.00,,,0.24,0,HR-IXP-WINDi_r2_v1.2,2013-03-11 04:26:00,
2013-03-10 23:31:00,50.2,48.2,29.69,SW,226,7.0,25.0,93,0.00,,,0.24,0,HR-IXP-WINDi_r2_v1.2,2013-03-11 04:31:00,
2013-03-10 23:36:00,50.1,48.1,29.69,SSE,161,11.0,25.0,93,0.00,,,0.24,0,HR-IXP-WINDi_r2_v1.2,2013-03-11 04:36:00,
2013-03-10 23:41:00,50.0,48.0,29.69,South,179,12.0,20.0,93,0.00,,,0.25,0,HR-IXP-WINDi_r2_v1.2,2013-03-11 04:41:00,
2013-03-10 23:46:00,50.0,48.0,29.69,South,188,8.0,19.0,93,0.00,,,0.25,0,HR-IXP-WINDi_r2_v1.2,2013-03-11 04:46:00,
2013-03-10 23:51:00,49.9,47.9,29.69,South,185,7.0,20.0,93,0.05,,,0.26,0,HR-IXP-WINDi_r2_v1.2,2013-03-11 04:51:00,
2013-03-10 23:56:00,49.9,48.2,29.68,SSE,159,11.0,20.0,94,0.05,,,0.26,0,HR-IXP-WINDi_r2_v1.2,2013-03-11 04:56:00,